Regional Weather Roundup
Issued by NWS Goodland, KS

Home | Current Version | Previous Version | Graphics & Text | Print | Product List | Glossary On
Versions: 1 2 3 4 5 6 7 8 9 10 11 12 13 14 15 16 17 18 19 20 21 22 23 24 25 26 27 28 29 30 31 32 33 34 35 36 37 38 39 40 41 42 43 44 45 46 47 48 49 50
000
ASUS43 KGLD 280408
RWRGLD

GOODLAND FORECAST AREA HOURLY WEATHER ROUNDUP
NATIONAL WEATHER SERVICE GOODLAND KS
900 PM MST THU NOV 27 2014

...OFFICIAL OBSERVATIONS...

CITY           SKY/WX    TMP DP  RH WIND       PRES   REMARKS
GOODLAND KS    PTCLDY    47  27  45 W13       30.05S
HILL CITY KS   CLEAR     42  25  50 SW7       30.03F
IMPERIAL NEB   CLEAR     43  28  55 W10       30.00S
MCCOOK NEB     CLEAR     38  25  59 W8        29.98S
AKRON CO       CLEAR     46  26  45 W15       30.05F
BURLINGTON CO  PTCLDY    42  25  50 W14       30.07F
LIMON CO       PTCLDY    28  18  66 NW6       30.12F
$$

...UNOFFICIAL OBSERVATIONS...

CITY           SKY/WX    TMP DP  RH WIND       PRES   REMARKS
COLBY KS       CLEAR     41  30  65 SW8       30.03F
GOVE KS          N/A     36  32  85 MISG        N/A
NORTON KS      CLEAR     36  21  55 S7        29.99F
SHARON SPRINGS   N/A     40  27  60 W9          N/A
TRIBUNE KS     CLEAR     37  30  75 W10       30.08S
TRENTON NEB      N/A     42  32  68 W8          N/A
$$


USA.gov is the U.S. government's official web portal to all federal, state and local government web resources and services.